Flag for Germany Weather past 2 weeks in Trier, Rhineland-Palatinate, Germany

Now
56 °F

Overcast.


Feels Like: 56 °F
Forecast: 46 / 60 °F
Wind: 1 mph from South

Location: Trier-Petrisberg

Current Time: Oct 25, 2014 at 7:01:38 PM

Latest Report: Oct 25, 2014 at 6:00 PM


Visibility: 11 mi

Pressure: 30.15 "Hg

Humidity: 84%

Dew point: 52 °F

Location of TrierLocation

Historic Weather in Trier — Graph

°F

Trier temperature yesterday

Maximum temperature yesterday: 56 °F (at 3:00 PM)
Minimum temperature yesterday: 43 °F (at 9:00 AM)
Average temperature yesterday: 49 °F

Past Weeks' High & Low Weather Summary

 TemperatureHumidityPressure
High73 °F (Oct 18, 5:00 PM)100% (Oct 11, 3:00 AM)30.30 "Hg (Oct 11, 3:00 AM)
Low43 °F (Oct 22, 4:00 AM)58% (Oct 15, 2:00 PM)29.62 "Hg (Oct 21, 5:00 PM)
Average55 °F90%29.98 "Hg
* Reported Oct 10 6:00 PM — Oct 25 6:00 PM, Trier, Weather by CustomWeather, © 2014

Note: Actual official high and low records may vary slightly from our data, if they occured in-between our weather recording intervals... More about our weather records

Advertising

Trier weather history for previous 24 hours

 ConditionsComfort  
Time TempWeatherWind HumidityBarometerVisibility
6:00 PM
Oct 25
56 °FOvercast.1 mph84%30.15 "Hg11 mi
5:00 PM56 °FOvercast.1 mph82%30.15 "Hg12 mi
4:00 PM56 °FOvercast.2 mph85%30.15 "Hg12 mi
3:00 PM56 °FOvercast.2 mph83%30.14 "Hg11 mi
2:00 PM55 °FOvercast.1 mph86%30.14 "Hg11 mi
1:00 PM53 °FOvercast.3 mph90%30.14 "Hg10 mi
12:00 PM51 °FOvercast.2 mph93%30.14 "Hg6 mi
11:00 AM50 °FOvercast.2 mph95%30.14 "Hg6 mi
10:00 AM49 °FOvercast.2 mph97%30.14 "Hg5 mi
9:00 AM48 °FDrizzle. Overcast.2 mph98%30.13 "Hg4 mi
8:00 AM48 °FOvercast.2 mph98%30.11 "Hg4 mi
7:00 AM48 °FFog.1 mph97%30.10 "Hg4 mi
6:00 AM48 °FFog.1 mph97%30.10 "Hg4 mi
5:00 AM48 °FOvercast.1 mph98%30.10 "Hg4 mi
4:00 AM47 °FDrizzle. Overcast.1 mph97%30.11 "Hg2 mi
3:00 AM48 °FOvercast.1 mph95%30.11 "Hg5 mi
2:00 AM47 °FOvercast.1 mph96%30.11 "Hg5 mi
1:00 AM47 °FOvercast.1 mph94%30.11 "Hg5 mi
12:00 AM48 °FOvercast.1 mph93%30.11 "Hg6 mi
11:00 PM
Oct 24
49 °FOvercast.1 mph93%30.11 "Hg6 mi
10:00 PM50 °FOvercast.1 mph86%30.11 "Hg9 mi
9:00 PM50 °FOvercast.1 mph88%30.10 "Hg9 mi
8:00 PM51 °FOvercast.1 mph85%30.11 "Hg11 mi
7:00 PM52 °FOvercast.1 mph77%30.11 "Hg12 mi
Weather by CustomWeather, © 2014

See weather overviewHow to use our weather pages